Weather History for Two Harbors, MN

Change the Weather History Date:

Tuesday, September 17, 2013

  Actual Average Record
Temperature  
Mean Temperature 48 °F -  
Max Temperature 64 °F 64 °F 86 °F (1948)
Min Temperature 32 °F 48 °F 30 °F (2011)
Degree Days  
Heating Degree Days 17    
Moisture  
Dew Point 41 °F    
Average Humidity 75    
Maximum Humidity 87    
Minimum Humidity 59    
Precipitation  
Precipitation 0.00 in - - ()
Sea Level Pressure  
Sea Level Pressure 30.12 in    
Wind  
Wind Speed 2 mph (South)    
Max Wind Speed 12 mph    
Max Gust Speed 20 mph    
Visibility 10 miles    
Events      
Averages and records for this station are not official NWS values.
T = Trace of Precipitation, MM = Missing Value Source: NWS Daily Summary

Daily Weather History Graph

Daily Weather History Graph

Search for Another Location

Airport:

Trip Planner

Search our weather history database for the weather conditions in past years. The results will help you decide how hot, cold, wet, or windy it might be!

Date:

Astronomy

Sep. 17, 2013 Rise Set
Actual Time 6:47 AM CDT 7:14 PM CDT
Civil Twilight 6:16 AM CDT 7:44 PM CDT
Nautical Twilight 5:40 AM CDT 8:20 PM CDT
Astronomical Twilight 5:03 AM CDT 8:58 PM CDT
Moon 6:04 PM CDT (9/17) 4:37 AM CDT (9/17)
Length of Visible Light 13h 27m
Length of Day
12h 26m
Waxing Gibbous, 96% of the Moon is Illuminated
Sep 17
Waxing Gibbous
Sep 19
Full
Sep 26
Last Quarter
Oct 4
New
Oct 11
First Quarter

Hourly Weather History & Observations

Time (CDT) Temp. Dew Point Humidity Pressure Visibility Wind Dir Wind Speed Gust Speed Precip Events Conditions
12:13 AM 39.2 °F 35.6 °F 87% 30.26 in 10.0 mi Calm Calm - N/A   Clear
12:34 AM 37.4 °F 33.8 °F 87% 30.25 in 10.0 mi Calm Calm - N/A   Clear
12:53 AM 37.4 °F 33.8 °F 87% 30.25 in 10.0 mi Calm Calm - N/A   Clear
1:14 AM 37.4 °F 32.0 °F 81% 30.25 in 10.0 mi Calm Calm - N/A   Clear
1:33 AM 37.4 °F 32.0 °F 81% 30.26 in 10.0 mi Calm Calm - N/A   Clear
1:53 AM 37.4 °F 32.0 °F 81% 30.25 in 10.0 mi Calm Calm - N/A   Clear
2:14 AM 35.6 °F 30.2 °F 81% 30.25 in 10.0 mi Calm Calm - N/A   Clear
2:33 AM 35.6 °F 30.2 °F 81% 30.24 in 10.0 mi Calm Calm - N/A   Clear
2:53 AM 35.6 °F 30.2 °F 81% 30.24 in 10.0 mi Calm Calm - N/A   Clear
3:14 AM 35.6 °F 30.2 °F 81% 30.24 in 10.0 mi Calm Calm - N/A   Clear
3:33 AM 35.6 °F 30.2 °F 81% 30.24 in 10.0 mi Calm Calm - N/A   Clear
3:53 AM 33.8 °F 30.2 °F 87% 30.24 in 10.0 mi Calm Calm - N/A   Clear
4:13 AM 33.8 °F 28.4 °F 81% 30.24 in 10.0 mi Calm Calm - N/A   Clear
4:33 AM 33.8 °F 28.4 °F 81% 30.23 in 10.0 mi Calm Calm - N/A   Clear
4:54 AM 33.8 °F 28.4 °F 81% 30.23 in 10.0 mi Calm Calm - N/A   Clear
5:13 AM 33.8 °F 28.4 °F 81% 30.23 in 10.0 mi Calm Calm - N/A   Clear
5:33 AM 33.8 °F 28.4 °F 81% 30.23 in 10.0 mi Calm Calm - N/A   Clear
5:54 AM 33.8 °F 28.4 °F 81% 30.22 in 10.0 mi Calm Calm - N/A   Clear
6:13 AM 33.8 °F 28.4 °F 81% 30.23 in 10.0 mi Calm Calm - N/A   Clear
6:33 AM 32.0 °F 26.6 °F 80% 30.23 in 10.0 mi Calm Calm - N/A   Clear
6:54 AM 32.0 °F 26.6 °F 80% 30.22 in 10.0 mi Calm Calm - N/A   Clear
7:13 AM 33.8 °F 28.4 °F 81% 30.23 in 10.0 mi Calm Calm - N/A   Clear
7:33 AM 33.8 °F 28.4 °F 81% 30.22 in 10.0 mi Calm Calm - N/A   Clear
7:54 AM 35.6 °F 30.2 °F 81% 30.22 in 10.0 mi Calm Calm - N/A   Clear
8:13 AM 41.0 °F 35.6 °F 81% 30.22 in 10.0 mi Calm Calm - N/A   Clear
8:33 AM 44.6 °F 39.2 °F 81% 30.21 in 10.0 mi Calm Calm - N/A   Clear
8:54 AM 48.2 °F 42.8 °F 82% 30.20 in 10.0 mi SW 3.5 mph - N/A   Clear
9:13 AM 48.2 °F 42.8 °F 82% 30.20 in 10.0 mi SSW 4.6 mph - N/A   Clear
9:33 AM 51.8 °F 44.6 °F 76% 30.19 in 10.0 mi SW 8.1 mph - N/A   Clear
9:54 AM 51.8 °F 44.6 °F 76% 30.19 in 10.0 mi SSW 6.9 mph - N/A   Clear
10:13 AM 53.6 °F 44.6 °F 72% 30.19 in 10.0 mi SSW 10.4 mph - N/A   Clear
10:33 AM 55.4 °F 44.6 °F 67% 30.18 in 10.0 mi SW 11.5 mph 19.6 mph N/A   Clear
10:54 AM 55.4 °F 46.4 °F 72% 30.17 in 10.0 mi SW 8.1 mph - N/A   Clear
11:13 AM 57.2 °F 46.4 °F 67% 30.17 in 10.0 mi South 11.5 mph - N/A   Clear
11:33 AM 57.2 °F 46.4 °F 67% 30.16 in 10.0 mi SW 9.2 mph - N/A   Clear
11:54 AM 59.0 °F 46.4 °F 63% 30.16 in 10.0 mi SSW 11.5 mph - N/A   Clear
12:13 PM 60.8 °F 48.2 °F 63% 30.15 in 10.0 mi South 6.9 mph - N/A   Clear
12:33 PM 60.8 °F 48.2 °F 63% 30.13 in 10.0 mi South 9.2 mph - N/A   Clear
12:54 PM 62.6 °F 48.2 °F 59% 30.12 in 10.0 mi South 11.5 mph 16.1 mph N/A   Clear
1:13 PM 62.6 °F 48.2 °F 59% 30.11 in 10.0 mi South 9.2 mph - N/A   Clear
1:33 PM 62.6 °F 48.2 °F 59% 30.10 in 10.0 mi South 11.5 mph 17.3 mph N/A   Clear
1:54 PM 64.4 °F 50.0 °F 59% 30.09 in 10.0 mi South 11.5 mph - N/A   Clear
2:14 PM 64.4 °F 50.0 °F 59% 30.08 in 10.0 mi SSE 11.5 mph 16.1 mph N/A   Clear
2:33 PM 64.4 °F 50.0 °F 59% 30.07 in 10.0 mi South 8.1 mph - N/A   Clear
2:53 PM 64.4 °F 50.0 °F 59% 30.06 in 10.0 mi South 6.9 mph - N/A   Clear
3:13 PM 64.4 °F 51.8 °F 64% 30.06 in 10.0 mi ESE 8.1 mph - N/A   Clear
3:33 PM 62.6 °F 50.0 °F 63% 30.04 in 10.0 mi ESE 5.8 mph - N/A   Clear
3:54 PM 62.6 °F 50.0 °F 63% 30.03 in 10.0 mi South 6.9 mph - N/A   Clear
4:13 PM 62.6 °F 50.0 °F 63% 30.03 in 10.0 mi SE 5.8 mph - N/A   Clear
4:33 PM 62.6 °F 50.0 °F 63% 30.02 in 10.0 mi SE 4.6 mph - N/A   Clear
4:54 PM 62.6 °F 50.0 °F 63% 30.02 in 10.0 mi SE 4.6 mph - N/A   Clear
5:13 PM 62.6 °F 48.2 °F 59% 30.01 in 10.0 mi SE 3.5 mph - N/A   Clear
5:33 PM 60.8 °F 48.2 °F 63% 30.01 in 10.0 mi East 4.6 mph - N/A   Clear
5:54 PM 60.8 °F 48.2 °F 63% 30.00 in 10.0 mi East 4.6 mph - N/A   Clear
6:13 PM 60.8 °F 48.2 °F 63% 30.00 in 10.0 mi East 4.6 mph - N/A   Clear
6:33 PM 59.0 °F 48.2 °F 67% 30.00 in 10.0 mi Calm Calm - N/A   Clear
6:54 PM 55.4 °F 48.2 °F 77% 30.00 in 10.0 mi Calm Calm - N/A   Clear
7:13 PM 53.6 °F 46.4 °F 77% 29.99 in 10.0 mi Calm Calm - N/A   Clear
7:33 PM 51.8 °F 46.4 °F 82% 29.99 in 10.0 mi Calm Calm - N/A   Clear
7:54 PM 51.8 °F 46.4 °F 82% 29.99 in 10.0 mi NNE 3.5 mph - N/A   Clear
8:13 PM 50.0 °F 44.6 °F 82% 29.99 in 10.0 mi Calm Calm - N/A   Clear
8:33 PM 50.0 °F 44.6 °F 82% 29.99 in 10.0 mi Calm Calm - N/A   Clear
8:53 PM 48.2 °F 44.6 °F 87% 29.99 in 10.0 mi Calm Calm - N/A   Clear
9:13 PM 48.2 °F 44.6 °F 87% 29.99 in 10.0 mi Calm Calm - N/A   Clear
9:34 PM 48.2 °F 44.6 °F 87% 29.98 in 10.0 mi Calm Calm - N/A   Clear
9:53 PM 48.2 °F 42.8 °F 82% 29.98 in 10.0 mi Calm Calm - N/A   Clear
10:13 PM 51.8 °F 46.4 °F 82% 29.98 in 10.0 mi Calm Calm - N/A   Mostly Cloudy
10:34 PM 51.8 °F 46.4 °F 82% 29.97 in 10.0 mi Calm Calm - N/A   Overcast
10:53 PM 55.4 °F 48.2 °F 77% 29.97 in 10.0 mi South 4.6 mph - N/A   Overcast
11:13 PM 55.4 °F 48.2 °F 77% 29.97 in 10.0 mi South 5.8 mph - N/A   Overcast
11:34 PM 55.4 °F 48.2 °F 77% 29.96 in 10.0 mi South 8.1 mph - N/A   Overcast
11:53 PM 55.4 °F 50.0 °F 82% 29.96 in 10.0 mi SSW 5.8 mph - N/A   Overcast